Location: Vancouver
(49.2500°N, 123.1330°W)
Time: 15:51:32
(UTC-08:00)

Transit 2A Rocket - Visible Passes

Search period start: 21 January 2018 00:00
Search period end: 31 January 2018 00:00
Orbit: 585 x 918 km, 66.7° (Epoch: 20 January)

Date Brightness Start Highest point End Pass type
(mag) Time Alt. Az. Time Alt. Az. Time Alt. Az.
21 Jan 6.3 17:41:17 10° WSW 17:47:09 45° NW 17:52:55 10° NNE visible
21 Jan 7.3 19:27:13 10° WNW 19:31:19 18° NNW 19:34:04 14° NNE visible
21 Jan 7.9 21:13:17 10° NNW 21:13:59 12° NNW 21:13:59 12° NNW visible
22 Jan 7.2 18:43:40 10° WNW 18:48:19 22° NNW 18:52:50 10° NNE visible
22 Jan 7.6 20:30:12 10° NNW 20:32:45 14° N 20:32:45 14° N visible
23 Jan 6.9 18:00:14 10° W 18:05:25 28° NNW 18:10:28 10° NNE visible
23 Jan 7.4 19:46:51 10° NW 19:50:05 15° N 19:51:31 14° N visible
24 Jan 7.4 19:03:17 10° NW 19:06:59 16° NNW 19:10:16 11° NNE visible
24 Jan 7.7 20:48:51 10° NNW 20:50:10 13° NNW 20:50:10 13° NNW visible
25 Jan 7.3 18:19:42 10° WNW 18:23:56 19° NNW 18:28:05 10° NNE visible
25 Jan 7.4 20:05:58 10° NNW 20:08:55 14° N 20:08:55 14° N visible
26 Jan 7.0 17:36:09 10° W 17:40:59 24° NNW 17:45:40 10° NNE visible
26 Jan 7.3 19:22:47 10° NW 19:25:48 14° N 19:27:39 12° NNE visible
26 Jan 7.8 21:06:49 10° NNW 21:07:33 12° NNW 21:07:33 12° NNW visible
27 Jan 7.3 18:39:20 10° NW 18:42:41 15° NNW 18:45:55 10° NNE visible
27 Jan 7.4 20:24:18 10° NNW 20:26:17 15° N 20:26:17 15° N visible
28 Jan 7.3 17:55:45 10° WNW 17:59:36 17° NNW 18:03:20 10° NNE visible
28 Jan 7.2 19:41:36 10° NNW 19:44:39 14° N 19:45:02 14° NNE visible
28 Jan 7.9 21:24:31 10° NNW 21:24:56 12° NNW 21:24:56 12° NNW visible
29 Jan 7.2 18:58:38 10° NNW 19:01:32 14° N 19:03:46 11° NNE visible
29 Jan 7.4 20:42:07 10° NNW 20:43:41 15° N 20:43:41 15° N visible
30 Jan 7.3 18:15:21 10° NW 18:18:23 14° N 18:21:21 10° NNE visible
30 Jan 7.1 19:59:40 10° NNW 20:02:26 17° N 20:02:26 17° N visible
30 Jan 8.0 21:42:09 10° NNW 21:42:20 11° NNW 21:42:20 11° NNW visible
